Weather History for Bangkok (Don Mueang), Thailand

Change the Weather History Date:

Tuesday, October 22, 2013

  Actual Average Record
Temperature  
Mean Temperature 88 °F -  
Max Temperature 95 °F 88 °F 95 °F (1996)
Min Temperature 81 °F 75 °F 75 °F (1999)
Cooling Degree Days 23    
Growing Degree Days 38 (Base 50)    
Moisture  
Dew Point 74 °F    
Average Humidity 64    
Maximum Humidity 84    
Minimum Humidity 40    
Precipitation  
Precipitation 0.00 in 0.10 in - ()
Sea Level Pressure  
Sea Level Pressure 29.86 in    
Wind  
Wind Speed 4 mph ()    
Max Wind Speed 12 mph    
Max Gust Speed -    
Visibility 6.2 miles    
Events      
Averages and records for this station are not official NWS values.
T = Trace of Precipitation, MM = Missing Value Source: Averaged Metar Reports

Daily Weather History Graph

Daily Weather History Graph

Search for Another Location

Airport:

Trip Planner

Search our weather history database for the weather conditions in past years. The results will help you decide how hot, cold, wet, or windy it might be!

Date:

Astronomy

Oct. 22, 2013 Rise Set
Actual Time 6:09 AM ICT 5:54 PM ICT
Civil Twilight 5:47 AM ICT 6:15 PM ICT
Nautical Twilight 5:22 AM ICT 6:40 PM ICT
Astronomical Twilight 4:57 AM ICT 7:05 PM ICT
Moon 8:32 PM ICT (10/22) 8:47 AM ICT (10/22)
Length of Visible Light 12h 27m
Length of Day
11h 44m
Waning Gibbous, 90% of the Moon is Illuminated
Oct 22
Waning Gibbous
Oct 27
Last Quarter
Nov 3
New
Nov 10
First Quarter
Nov 17
Full

Hourly Weather History & Observations

Time (ICT) Temp. Heat Index Dew Point Humidity Pressure Visibility Wind Dir Wind Speed Gust Speed Precip Events Conditions
12:00 AM 84.2 °F 92.3 °F 75.2 °F 74% 29.89 in 6.2 mi East 3.5 mph - N/A   Mostly Cloudy
12:30 AM 84.2 °F 92.3 °F 75.2 °F 74% 29.86 in 6.2 mi ENE 3.5 mph - N/A   Mostly Cloudy
1:00 AM 83 °F - 71 °F 58% 29.87 in 6 mi Calm Calm - -   Scattered Clouds
1:30 AM 82.4 °F 89.5 °F 75.2 °F 79% 29.86 in 6.2 mi ESE 2.3 mph - N/A   Mostly Cloudy
2:00 AM 82.4 °F 89.5 °F 75.2 °F 79% 29.86 in 6.2 mi Calm Calm - N/A   Mostly Cloudy
3:00 AM 82.4 °F 89.5 °F 75.2 °F 79% 29.86 in 6.2 mi Calm Calm - N/A   Mostly Cloudy
3:30 AM 82.4 °F 89.5 °F 75.2 °F 79% 29.83 in 6.2 mi Calm Calm - N/A   Mostly Cloudy
4:00 AM 82.4 °F 89.5 °F 75.2 °F 79% 29.83 in 6.2 mi NNE 2.3 mph - N/A   Mostly Cloudy
4:30 AM 82.4 °F 89.5 °F 75.2 °F 79% 29.83 in 6.2 mi ENE 2.3 mph - N/A   Mostly Cloudy
5:00 AM 82.4 °F 89.5 °F 75.2 °F 79% 29.83 in 6.2 mi NE 4.6 mph - N/A   Mostly Cloudy
5:30 AM 82.4 °F 89.5 °F 75.2 °F 79% 29.86 in 6.2 mi North 4.6 mph - N/A   Mostly Cloudy
6:00 AM 82.4 °F 89.5 °F 75.2 °F 79% 29.86 in 6.2 mi Calm Calm - N/A   Mostly Cloudy
6:30 AM 82.4 °F 89.5 °F 75.2 °F 79% 29.86 in 6.2 mi NNE 2.3 mph - N/A   Mostly Cloudy
7:00 AM 82 °F - 76 °F 78% 29.90 in 6 mi North 3.5 mph - -   Scattered Clouds
7:00 AM 82.4 °F 90.9 °F 77.0 °F 84% 29.89 in 6.2 mi North 3.5 mph - N/A   Mostly Cloudy
7:30 AM 82.4 °F 89.5 °F 75.2 °F 79% 29.89 in 6.2 mi ENE 2.3 mph - N/A   Mostly Cloudy
8:00 AM 84.2 °F 92.3 °F 75.2 °F 74% 29.89 in 6.2 mi Calm Calm - N/A   Mostly Cloudy
8:30 AM 86.0 °F 93.4 °F 73.4 °F 66% 29.92 in 6.2 mi East 3.5 mph - N/A   Mostly Cloudy
9:00 AM 87.8 °F 95.6 °F 73.4 °F 62% 29.92 in 6.2 mi Calm Calm - N/A   Mostly Cloudy
9:30 AM 87.8 °F 95.6 °F 73.4 °F 62% 29.92 in 6.2 mi ESE 4.6 mph - N/A   Mostly Cloudy
10:00 AM 89.6 °F 98.2 °F 73.4 °F 59% 29.92 in 6.2 mi SE 5.8 mph - N/A   Mostly Cloudy
10:30 AM 91.4 °F 100.1 °F 73.4 °F 55% 29.92 in 6.2 mi ENE 9.2 mph - N/A   Mostly Cloudy
11:00 AM 91.4 °F 100.1 °F 73.4 °F 55% 29.89 in 6.2 mi East 5.8 mph - N/A   Mostly Cloudy
11:30 AM 91.4 °F 100.1 °F 73.4 °F 55% 29.89 in 6.2 mi SSE 4.6 mph - N/A   Mostly Cloudy
12:00 PM 93.2 °F 102.4 °F 73.4 °F 52% 29.86 in 6.2 mi ESE 5.8 mph - N/A   Mostly Cloudy
12:30 PM 93.2 °F 102.4 °F 73.4 °F 52% 29.86 in 6.2 mi ESE 6.9 mph - N/A   Mostly Cloudy
1:00 PM 94 °F - 72 °F 40% 29.86 in 6 mi East 5.8 mph - -   Scattered Clouds
1:00 PM 93.2 °F 100.5 °F 71.6 °F 49% 29.83 in 6.2 mi East 5.8 mph - N/A   Scattered Clouds
1:30 PM 93.2 °F 100.5 °F 71.6 °F 49% 29.83 in 6.2 mi SSE 8.1 mph - N/A   Scattered Clouds
2:00 PM 93.2 °F 100.5 °F 71.6 °F 49% 29.83 in 6.2 mi ESE 9.2 mph - N/A   Scattered Clouds
2:30 PM 95.0 °F 103.2 °F 71.6 °F 47% 29.80 in 6.2 mi ESE 6.9 mph - N/A   Scattered Clouds
3:00 PM 95.0 °F 101.3 °F 69.8 °F 44% 29.80 in 6.2 mi ESE 8.1 mph - N/A   Scattered Clouds
3:30 PM 95.0 °F 101.3 °F 69.8 °F 44% 29.80 in 6.2 mi ESE 9.2 mph - N/A   Scattered Clouds
4:00 PM 93.2 °F 98.8 °F 69.8 °F 46% 29.77 in 6.2 mi SE 4.6 mph - N/A   Scattered Clouds
4:30 PM 93.2 °F 98.8 °F 69.8 °F 46% 29.80 in 6.2 mi East 11.5 mph - N/A   Scattered Clouds
5:00 PM 93.2 °F 98.8 °F 69.8 °F 46% 29.80 in 6.2 mi ESE 8.1 mph - N/A   Scattered Clouds
5:30 PM 91.4 °F 98.4 °F 71.6 °F 52% 29.80 in 6.2 mi East 9.2 mph - N/A   Scattered Clouds
6:00 PM 89.6 °F 98.2 °F 73.4 °F 59% 29.80 in 6.2 mi NE 4.6 mph - N/A   Scattered Clouds
6:30 PM 89.6 °F 98.2 °F 73.4 °F 59% 29.83 in 6.2 mi NE 6.9 mph - N/A   Scattered Clouds
7:00 PM 89 °F - 73 °F 51% 29.84 in 6 mi NE 5.8 mph - -   Scattered Clouds
7:00 PM 89.6 °F 98.2 °F 73.4 °F 59% 29.83 in 6.2 mi NE 5.8 mph - N/A   Scattered Clouds
7:30 PM 87.8 °F 95.6 °F 73.4 °F 62% 29.83 in 6.2 mi ENE 5.8 mph - N/A   Scattered Clouds
8:00 PM 87.8 °F 95.6 °F 73.4 °F 62% 29.86 in 6.2 mi NE 3.5 mph - N/A   Mostly Cloudy
8:30 PM 87.8 °F 97.6 °F 75.2 °F 66% 29.86 in 6.2 mi North 5.8 mph - N/A   Mostly Cloudy
9:00 PM 86.0 °F 96.9 °F 77.0 °F 74% 29.89 in 6.2 mi North 4.6 mph - N/A   Mostly Cloudy
9:30 PM 86.0 °F 96.9 °F 77.0 °F 74% 29.89 in 6.2 mi NNW 3.5 mph - N/A   Mostly Cloudy
10:00 PM 86.0 °F 95.1 °F 75.2 °F 70% 29.89 in 6.2 mi WSW 4.6 mph - N/A   Mostly Cloudy
10:30 PM 86.0 °F 95.1 °F 75.2 °F 70% 29.89 in 6.2 mi Calm Calm - N/A   Mostly Cloudy
11:00 PM 86.0 °F 95.1 °F 75.2 °F 70% 29.89 in 5.6 mi WNW 5.8 mph - N/A   Mostly Cloudy
11:30 PM 84.2 °F 94.1 °F 77.0 °F 79% 29.89 in 5.6 mi West 3.5 mph - N/A   Mostly Cloudy